SKBQSKCG

Guest
Details From SKBQ - Ernesto Cortissoz
To SKCG - RAFAEL NUNEZ
Flight Number -
Tags decoded
Created
Modified
Stats Distance 73 nm / 136 km
Max Altitude 0 ft / 0 m
Waypoints 3
Social Downloads 1
Likes 0
Share VATSIM

Download

Looking for another format? Having issues loading an existing format? Contact us
Advertisement - Login to hide

Notes

Requested: SKBQ CTG2E A574 CTG SKCG Unmatched points: CTG2E A574

Route

SKBQ CTG SKCG

ID Type Via Altitude Latitude Longitude Leg Dist Tot Dist Heading (true) Name
O SKBQ APT - 0 ft / 0 m 10.88959˚ -74.78082˚ - 0 nm - Ernesto Cortissoz
CTG VOR - 0 ft / 0 m 10.20836˚ -75.50608˚ 59 nm 59 nm 226° / 226° CARTAGENA VOR-DME
O SKCG APT - 0 ft / 0 m 10.44238˚ -75.51296˚ 14 nm 73 nm 358° / 358° RAFAEL NUNEZ

Altitude Profile

Advertisement - Login to hide

SKBQ

Details ICAO SKBQ (BAQ)
Name Ernesto Cortissoz
Region Colombia
Timezone America/Bogota (UTC-5.0)
Stats Elevation 98 ft / 30 m (AMSL)
Location 10.889589° -74.780820°
Runways 1
Magnetic Variation 7.728° W

METAR

SKBQ 161900Z 03015KT 9999 FEW015 32/21 A2977

Decode

TAF

TAF SKBQ 161100Z 1612/1712 03012KT 9999 FEW020 BECMG 1617/1618 CAVOK TX33/1618Z TN24/1711Z

Decode

Departure Runways

ID Width Length Bearing (true) Bearing (mag) Surface Threshold Offset Overrun Length
05 148 ft / 45 m 9,863 ft / 3,006 m 40.09° 47.82° Concrete 0 ft / 0 m 105 ft / 32 m
23 148 ft / 45 m 9,863 ft / 3,006 m 220.09° 227.82° Concrete 0 ft / 0 m 0 ft / 0 m

SKCG

Details ICAO SKCG (CTG)
Name RAFAEL NUNEZ
Region Colombia
Timezone America/Bogota (UTC-5.0)
Stats Elevation 4 ft / 1 m (AMSL)
Location 10.442379° -75.512961°
Runways 1
Magnetic Variation 7.205° W

METAR

SKCG 161900Z 35012KT CAVOK 32/23 A2976

Decode

TAF

TAF SKCG 161100Z 1612/1712 03006KT 9999 FEW020 TEMPO 1616/1621 33010KT BECMG 1623/1700 CAVOK TX33/1618Z TN24/1711Z

Decode

Destination Runways

ID Width Length Bearing (true) Bearing (mag) Surface Threshold Offset Overrun Length
01 148 ft / 45 m 8,584 ft / 2,616 m 2.31° 9.52° Asphalt 0 ft / 0 m 180 ft / 55 m
19 148 ft / 45 m 8,584 ft / 2,616 m 182.31° 189.52° Asphalt 190 ft / 58 m 0 ft / 0 m

Popular Alternatives